GSAT-14

Last updated on Sat Jun 14 2025 00:02:45 GMT+0000 (Coordinated Universal Time)

1 39498U 14001A 25164.59140926 -.00000062 00000+0 00000+0 0 9990 2 39498 0.0179 31.0424 0000985 59.9905 98.0500 1.00268960 41688
UTC large
Height (km)
Speed (km/s)
/
Latitude / Longitude
Inclination (degrees)
Orbital Period (minutes)
Azimuth
Elevation
Range (km)
Doppler Factor

Next 0 passes for location: London (51.5072 / 0.1276)

Sorry there are no passes over London.